Погода в Гулистане

Узбекистан     40°00′49″N   66°47′27″E
темп.,
°C
ветер,
м/с
пор.,
м/с
влажн.,
%
обл.,
%
осадки,
мм/ч
давл.,
гПа
погр.,
м
28 сентября, вт
вт2823:00+17всв48540 0.0 1015272
02:00+15св35610 0.0 101588
05:00+14всв33630 0.0 101549
08:00+17всв33540 0.0 1015167
11:00+24зюз23310 0.0 1014829
14:00+27з45220 0.0 10121458
17:00+26зсз33231 0.0 1012896
20:00+21ссв45295 0.0 101366
29 сентября, ср
ср2923:00+18св46401 0.0 1013100
02:00+17св44380 0.0 101362
05:00+16св443798 0.0 101456
08:00+18всв35325 0.0 1015195
11:00+25всв33230 0.0 1014981
14:00+28зсз23160 0.0 10131912
17:00+28сз32150 0.0 10131562
20:00+20всв611290 0.0 1016274
30 сентября, чт
чт3023:00+18св611340 0.0 1017279
02:00+16св511410 0.0 1017244
05:00+15св410450 0.0 1017209
08:00+17св611370 0.0 1018396
11:00+24всв77220 0.0 1016933
14:00+27всв65185 0.0 10141267
17:00+25всв77200 0.0 1015974
20:00+20св712300 0.0 1016320
1 октября, пт
пт123:00+17св714385 0.0 1017452
02:00+16всв7144398 0.0 1016451
05:00+14всв714467 0.0 1016365
08:00+15всв7124256 0.0 1018413
11:00+23всв892529 0.0 1016802
14:00+25всв882192 0.0 10151038
17:00+22всв9102681 0.0 1016884
20:00+18св7123428 0.0 1017509
2 октября, сб
сб223:00+15св6123530 0.0 1019301
02:00+13всв5113895 0.0 1019301
05:00+12всв511405 0.0 1020277
08:00+13всв593699 0.0 1021350
11:00+19всв6628100 0.0 1020820
14:00+23св432594 0.0 10191415
17:00+20св772898 0.0 1020906
20:00+15св6103341 0.0 1022347